| time (UTC) | temp F | wind direction | speed knots | gust knots | rain 1hr in | rain 24hr in | rain mn in | humidity % | barometer mb |
| 20260504202203 | 80 | 258 | 11.3 | 17.4 | 0.00 | 0.00 | 0.00 | 32 | 999.8 |
| 20260504201704 | 80 | 269 | 14.8 | 20.9 | 0.00 | 0.00 | 0.00 | 32 | 999.8 |
| 20260504200704 | 80 | 269 | 13.0 | 22.6 | 0.00 | 0.00 | 0.00 | 32 | 999.9 |
| 20260504200203 | 80 | 268 | 12.2 | 24.3 | 0.00 | 0.00 | 0.00 | 32 | 999.9 |
| 20260504195204 | 80 | 260 | 13.0 | 20.0 | 0.00 | 0.00 | 0.00 | 35 | 999.9 |
| 20260504194704 | 79 | 264 | 13.0 | 18.2 | 0.00 | 0.00 | 0.00 | 35 | 1000.0 |
| 20260504194204 | 79 | 233 | 12.2 | 17.4 | 0.00 | 0.00 | 0.00 | 35 | 999.9 |
| 20260504193704 | 78 | 264 | 11.3 | 17.4 | 0.00 | 0.00 | 0.00 | 36 | 1000.1 |
| 20260504193204 | 79 | 235 | 14.8 | 19.1 | 0.00 | 0.00 | 0.00 | 35 | 1000.0 |
| 20260504192203 | 78 | 264 | 11.3 | 14.8 | 0.00 | 0.00 | 0.00 | 37 | 1000.1 |
| 20260504191704 | 77 | 242 | 9.6 | 13.0 | 0.00 | 0.00 | 0.00 | 40 | 1000.3 |
| 20260504190203 | 78 | 254 | 11.3 | 13.9 | 0.00 | 0.00 | 0.00 | 38 | 1000.4 |
| 20260504185703 | 77 | 252 | 8.7 | 15.6 | 0.00 | 0.00 | 0.00 | 37 | 1000.5 |
| 20260504185204 | 78 | 240 | 12.2 | 20.0 | 0.00 | 0.00 | 0.00 | 37 | 1000.4 |
| 20260504183203 | 78 | 232 | 13.9 | 18.2 | 0.00 | 0.00 | 0.00 | 37 | 1000.6 |
| 20260504182703 | 77 | 272 | 11.3 | 17.4 | 0.00 | 0.00 | 0.00 | 35 | 1000.6 |
| 20260504182203 | 78 | 240 | 13.9 | 20.0 | 0.00 | 0.00 | 0.00 | 35 | 1000.5 |
| 20260504180204 | 78 | 226 | 12.2 | 17.4 | 0.00 | 0.00 | 0.00 | 35 | 1000.6 |
| 20260504175703 | 77 | 241 | 11.3 | 17.4 | 0.00 | 0.00 | 0.00 | 36 | 1000.6 |
| 20260504174703 | 78 | 272 | 11.3 | 17.4 | 0.00 | 0.00 | 0.00 | 36 | 1000.6 |
| 20260504174203 | 77 | 234 | 12.2 | 17.4 | 0.00 | 0.00 | 0.00 | 39 | 1000.6 |
| 20260504172204 | 77 | 245 | 9.6 | 14.8 | 0.00 | 0.00 | 0.00 | 39 | 1000.8 |
| 20260504171704 | 77 | 249 | 8.7 | 15.6 | 0.00 | 0.00 | 0.00 | 43 | 1000.9 |
| 20260504150702 | 68 | 199 | 7.0 | 10.4 | 0.00 | 0.00 | 0.00 | 53 | 1001.9 |
| 20260504140703 | 62 | 188 | 7.8 | 10.4 | 0.00 | 0.00 | 0.00 | 57 | 1002.4 |
| 20260504130703 | 57 | 189 | 5.2 | 7.0 | 0.00 | 0.00 | 0.00 | 61 | 1003.0 |
| 20260504130202 | 57 | 188 | 4.3 | 5.2 | 0.00 | 0.00 | 0.00 | 62 | 1003.0 |
| 20260504120203 | 52 | 162 | 0.0 | 0.0 | 0.00 | 0.00 | 0.00 | 67 | 1003.3 |
| 20260504110703 | 49 | 213 | 1.7 | 2.6 | 0.00 | 0.00 | 0.00 | 67 | 1003.6 |
| 20260504110202 | 50 | 209 | 2.6 | 5.2 | 0.00 | 0.00 | 0.00 | 66 | 1003.5 |
| 20260504081202 | 51 | 190 | 0.9 | 2.6 | 0.00 | 0.00 | 0.00 | 58 | 1005.2 |
| 20260504070203 | 53 | 195 | 2.6 | 5.2 | 0.00 | 0.00 | 0.00 | 51 | 1006.0 |
| 20260504060202 | 52 | 214 | 0.0 | 0.0 | 0.00 | 0.00 | 0.00 | 48 | 1006.6 |
| 20260504045203 | 56 | 214 | 0.0 | 0.0 | 0.00 | 0.00 | 0.00 | 43 | 1007.3 |
| 20260504043703 | 58 | 214 | 0.0 | 0.0 | 0.00 | 0.00 | 0.00 | 39 | 1007.4 |
| 20260504043203 | 58 | 214 | 0.0 | 0.0 | 0.00 | 0.00 | 0.00 | 39 | 1007.5 |
| 20260504041703 | 59 | 214 | 0.0 | 0.0 | 0.00 | 0.00 | 0.00 | 38 | 1007.6 |
| 20260504040702 | 59 | 214 | 0.0 | 0.0 | 0.00 | 0.00 | 0.00 | 37 | 1007.8 |
| 20260504040202 | 60 | 214 | 0.0 | 0.0 | 0.00 | 0.00 | 0.00 | 37 | 1007.9 |
| 20260504033703 | 59 | 214 | 0.9 | 0.9 | 0.00 | 0.00 | 0.00 | 37 | 1008.1 |
| 20260504033202 | 59 | 214 | 0.0 | 1.7 | 0.00 | 0.00 | 0.00 | 38 | 1008.2 |
| 20260504032702 | 59 | 214 | 0.0 | 0.9 | 0.00 | 0.00 | 0.00 | 37 | 1008.2 |
| 20260504031703 | 59 | 214 | 0.9 | 0.9 | 0.00 | 0.00 | 0.00 | 38 | 1008.4 |
| 20260504031202 | 59 | 214 | 0.9 | 0.9 | 0.00 | 0.00 | 0.00 | 38 | 1008.4 |
| 20260504030202 | 60 | 214 | 0.9 | 0.9 | 0.00 | 0.00 | 0.00 | 36 | 1008.3 |
| 20260504025702 | 61 | 214 | 0.0 | 0.9 | 0.00 | 0.00 | 0.00 | 36 | 1008.3 |
| 20260504024203 | 60 | 214 | 0.9 | 1.7 | 0.00 | 0.00 | 0.00 | 36 | 1008.2 |
| 20260504023702 | 61 | 214 | 0.9 | 1.7 | 0.00 | 0.00 | 0.00 | 36 | 1008.1 |
| 20260504022703 | 61 | 214 | 0.9 | 2.6 | 0.00 | 0.00 | 0.00 | 35 | 1008.0 |
| 20260504020703 | 63 | 221 | 1.7 | 2.6 | 0.00 | 0.00 | 0.00 | 35 | 1008.0 |
| 20260504014203 | 63 | 236 | 0.9 | 0.9 | 0.00 | 0.00 | 0.00 | 33 | 1007.9 |
| 20260504011703 | 64 | 236 | 0.9 | 1.7 | 0.00 | 0.00 | 0.00 | 34 | 1007.8 |
| 20260504010702 | 65 | 233 | 1.7 | 2.6 | 0.00 | 0.00 | 0.00 | 34 | 1007.9 |
| 20260504010203 | 65 | 248 | 1.7 | 2.6 | 0.00 | 0.00 | 0.00 | 35 | 1007.9 |
| 20260504005703 | 65 | 258 | 1.7 | 2.6 | 0.00 | 0.00 | 0.00 | 35 | 1007.9 |
| 20260504004702 | 67 | 252 | 1.7 | 4.3 | 0.00 | 0.00 | 0.00 | 35 | 1008.0 |
| 20260504003702 | 68 | 248 | 2.6 | 6.1 | 0.00 | 0.00 | 0.00 | 33 | 1007.9 |
| 20260504003203 | 68 | 258 | 4.3 | 7.0 | 0.00 | 0.00 | 0.00 | 32 | 1008.0 |
| 20260504002702 | 68 | 252 | 2.6 | 6.1 | 0.00 | 0.00 | 0.00 | 33 | 1008.0 |
| 20260504001202 | 71 | 268 | 5.2 | 7.0 | 0.00 | 0.00 | 0.00 | 27 | 1007.9 |
| 20260503234203 | 72 | 268 | 7.0 | 11.3 | 0.00 | 0.00 | 0.00 | 27 | 1007.8 |
| 20260503233703 | 72 | 284 | 5.2 | 8.7 | 0.00 | 0.00 | 0.00 | 25 | 1007.8 |
| 20260503233203 | 72 | 279 | 6.1 | 12.2 | 0.00 | 0.00 | 0.00 | 25 | 1007.8 |
| 20260503232203 | 73 | 284 | 8.7 | 13.9 | 0.00 | 0.00 | 0.00 | 24 | 1007.8 |
| 20260503230202 | 73 | 271 | 9.6 | 15.6 | 0.00 | 0.00 | 0.00 | 26 | 1007.9 |
| 20260503224203 | 73 | 256 | 11.3 | 14.8 | 0.00 | 0.00 | 0.00 | 27 | 1007.8 |
| 20260503223203 | 73 | 265 | 9.6 | 15.6 | 0.00 | 0.00 | 0.00 | 25 | 1007.8 |
| 20260503222703 | 73 | 271 | 8.7 | 17.4 | 0.00 | 0.00 | 0.00 | 27 | 1007.8 |
| 20260503222203 | 73 | 264 | 8.7 | 14.8 | 0.00 | 0.00 | 0.00 | 27 | 1007.7 |
| 20260503220703 | 73 | 268 | 10.4 | 15.6 | 0.00 | 0.00 | 0.00 | 27 | 1007.7 |
| 20260503214703 | 73 | 268 | 10.4 | 17.4 | 0.00 | 0.00 | 0.00 | 27 | 1007.7 |
| 20260503214203 | 73 | 256 | 11.3 | 15.6 | 0.00 | 0.00 | 0.00 | 29 | 1007.8 |
| 20260503212703 | 73 | 253 | 9.6 | 13.9 | 0.00 | 0.00 | 0.00 | 27 | 1007.7 |
| 20260503212203 | 73 | 284 | 10.4 | 17.4 | 0.00 | 0.00 | 0.00 | 30 | 1007.8 |
| 20260503211703 | 73 | 270 | 10.4 | 17.4 | 0.00 | 0.00 | 0.00 | 31 | 1007.9 |
| 20260503210703 | 74 | 317 | 6.1 | 13.9 | 0.00 | 0.00 | 0.00 | 27 | 1008.0 |
| 20260503205703 | 73 | 267 | 8.7 | 14.8 | 0.00 | 0.00 | 0.00 | 32 | 1008.1 |
| 20260503205202 | 72 | 287 | 12.2 | 18.2 | 0.00 | 0.00 | 0.00 | 30 | 1008.1 |
| 20260503203203 | 73 | 269 | 13.0 | 17.4 | 0.00 | 0.00 | 0.00 | 29 | 1008.2 |